EW1587 Weather Reports


time (UTC)temp
C
wind
direction
speed
KPH
gust
KPH
rain 1hr
cm
rain 24hr
cm
rain mn
cm
humidity
%
barometer
mb
20260509162542 11 1 12.9 22.5 0.00 0.00 0.00 45 1008.9
20260509162038 11 54 11.3 33.8 0.00 0.00 0.00 46 1008.9
20260509161543 11 12 14.5 27.4 0.00 0.00 0.00 46 1008.9
20260509161038 11 67 12.9 30.6 0.00 0.00 0.00 45 1008.8
20260509160536 11 35 12.9 25.7 0.00 0.00 0.00 47 1008.8
20260509160036 11 29 16.1 40.2 0.00 0.00 0.00 45 1008.8
20260509155535 11 77 16.1 40.2 0.00 0.00 0.00 45 1008.6
20260509155136 11 44 19.3 35.4 0.00 0.00 0.00 44 1008.7
20260509154513 11 46 6.4 25.7 0.00 0.00 0.00 48 1008.5
20260509154101 11 315 9.7 24.1 0.00 0.00 0.00 48 1008.5
20260509153603 11 6 11.3 24.1 0.00 0.00 0.00 49 1008.3
20260509153058 11 9 8.0 16.1 0.00 0.00 0.00 50 1008.3
20260509152602 10 41 9.7 19.3 0.00 0.00 0.00 53 1008.1
20260509152057 10 63 11.3 24.1 0.00 0.00 0.00 54 1008.1
20260509151616 10 42 12.9 24.1 0.00 0.00 0.00 52 1008.0
20260509151056 10 32 8.0 27.4 0.00 0.00 0.00 53 1007.9
20260509150555 10 18 8.0 27.4 0.00 0.00 0.00 52 1007.9
20260509150054 10 293 9.7 25.7 0.00 0.00 0.00 55 1007.7
20260509145553 10 353 6.4 27.4 0.00 0.00 0.00 56 1007.7
20260509145052 10 41 12.9 25.7 0.00 0.00 0.00 56 1007.6
20260509144553 10 11 11.3 27.4 0.00 0.00 0.00 56 1007.6
20260509144054 10 48 17.7 27.4 0.00 0.00 0.00 59 1007.5
20260509143550 10 89 4.8 19.3 0.00 0.00 0.00 59 1007.4
20260509143527 10 329 8.0 19.3 0.00 0.00 0.00 59 1007.4
20260509143057 10 314 4.8 19.3 0.00 0.00 0.00 61 1007.4
20260509142548 10 349 4.8 22.5 0.00 0.00 0.00 63 1007.3
20260509142148 10 6 6.4 22.5 0.00 0.00 0.00 63 1007.3
20260509141550 10 4 8.0 20.9 0.00 0.00 0.00 63 1007.1
20260509141200 10 51 4.8 19.3 0.00 0.00 0.00 64 1007.1
20260509140546 10 26 6.4 29.0 0.00 0.00 0.00 67 1007.1
20260509140047 9 57 8.0 29.0 0.00 0.00 0.00 67 1007.0
20260509135549 9 10 12.9 27.4 0.00 0.00 0.00 65 1007.0
20260509135050 9 60 9.7 25.7 0.00 0.00 0.00 66 1007.0
20260509134547 9 68 9.7 25.7 0.00 0.00 0.00 68 1007.0
20260509134045 9 79 11.3 25.7 0.00 0.00 0.00 70 1006.9
20260509133544 8 48 11.3 17.7 0.00 0.00 0.00 72 1006.8
20260509133144 8 4 8.0 20.9 0.00 0.00 0.00 72 1006.8
20260509132558 8 63 11.3 25.7 0.00 0.00 0.00 72 1006.6
20260509132043 8 56 12.9 25.7 0.00 0.00 0.00 73 1006.6
20260509131555 8 59 12.9 24.1 0.00 0.00 0.00 75 1006.5
20260509131039 8 60 9.7 24.1 0.00 0.00 0.00 78 1006.5
20260509130539 8 39 12.9 24.1 0.00 0.00 0.00 79 1006.3
20260509130057 8 56 8.0 14.5 0.00 0.00 0.00 80 1006.2
20260509125536 8 358 8.0 17.7 0.00 0.00 0.00 81 1006.1
20260509125035 8 18 11.3 17.7 0.00 0.00 0.00 81 1006.0
20260509124537 8 47 1.6 12.9 0.00 0.00 0.00 84 1005.9
20260509124034 8 46 6.4 12.9 0.00 0.00 0.00 84 1005.8
20260509123533 8 58 3.2 12.9 0.00 0.00 0.00 85 1005.7
20260509123120 8 61 6.4 12.9 0.00 0.00 0.00 86 1005.6
20260509122531 8 44 3.2 11.3 0.00 0.00 0.00 86 1005.6
20260509122031 7 27 6.4 14.5 0.00 0.00 0.00 87 1005.5
20260509121530 7 51 6.4 19.3 0.00 0.00 0.00 87 1005.4
20260509121130 7 89 6.4 19.3 0.00 0.00 0.00 87 1005.3
20260509120528 8 50 9.7 24.1 0.00 0.00 0.00 87 1005.3
20260509120036 8 32 9.7 24.1 0.00 0.00 0.00 87 1005.3
20260509115526 8 9 8.0 16.1 0.00 0.00 0.00 86 1005.2
20260509115029 8 32 6.4 17.7 0.00 0.00 0.00 85 1005.1
20260509114524 8 30 8.0 20.9 0.00 0.00 0.00 85 1005.0
20260509114023 8 16 9.7 20.9 0.00 0.00 0.00 85 1005.0
20260509113524 8 46 9.7 20.9 0.00 0.00 0.00 85 1004.8
20260509113020 8 352 9.7 22.5 0.00 0.00 0.00 85 1004.7
20260509112518 8 347 8.0 24.1 0.00 0.00 0.00 86 1004.6
20260509112018 8 16 3.2 24.1 0.00 0.00 0.00 87 1004.4
20260509111516 8 15 8.0 19.3 0.00 0.00 0.00 87 1004.3
20260509111015 8 29 4.8 14.5 0.00 0.00 0.00 88 1004.2
20260509110513 8 12 3.2 17.7 0.00 0.00 0.00 89 1004.0
20260509110014 8 355 8.0 17.7 0.00 0.00 0.00 90 1004.0
20260509105513 8 343 4.8 14.5 0.00 0.00 0.00 90 1003.8
20260509105013 8 316 4.8 14.5 0.00 0.00 0.00 89 1003.7
20260509104511 8 326 4.8 14.5 0.00 0.00 0.00 89 1003.5
20260509104012 8 326 3.2 11.3 0.00 0.00 0.00 89 1003.5
20260509103509 8 326 3.2 11.3 0.00 0.00 0.00 89 1003.4
20260509103008 8 307 1.6 9.7 0.00 0.00 0.00 89 1003.2
20260509102512 8 274 3.2 8.0 0.00 0.00 0.00 88 1003.1
20260509102108 8 309 1.6 4.8 0.00 0.00 0.00 88 1003.0
20260509101511 8 303 1.6 8.0 0.00 0.00 0.00 88 1003.0
20260509101008 8 283 1.6 8.0 0.00 0.00 0.00 88 1003.0
20260509100507 8 284 3.2 8.0 0.00 0.00 0.00 88 1002.9
20260509100006 8 288 3.2 6.4 0.00 0.00 0.00 88 1003.0
20260509095507 8 300 1.6 6.4 0.00 0.00 0.00 87 1002.9
20260509095005 8 311 0.0 4.8 0.00 0.00 0.00 87 1003.0
20260509094504 8 299 1.6 6.4 0.00 0.00 0.00 87 1002.9
20260509094004 8 319 0.0 6.4 0.00 0.00 0.00 86 1003.0
20260509093503 8 345 0.0 3.2 0.00 0.00 0.00 85 1002.9
20260509093003 8 318 0.0 4.8 0.00 0.00 0.00 84 1002.8
20260509092501 9 347 0.0 9.7 0.00 0.00 0.00 83 1002.8
20260509092000 9 41 0.0 9.7 0.00 0.00 0.00 82 1002.9
20260509091600 9 191 1.6 6.4 0.00 0.00 0.00 81 1003.1
20260509091100 10 262 1.6 6.4 0.00 0.00 0.00 79 1003.3
20260509090559 10 316 0.0 6.4 0.00 0.00 0.00 78 1003.4
20260509085557 10 27 3.2 11.3 0.00 0.00 0.00 76 1003.5
20260509085056 10 67 4.8 16.1 0.00 0.00 0.00 76 1003.4
20260509084608 10 44 8.0 17.7 0.00 0.00 0.00 75 1003.3
20260509084056 10 51 4.8 11.3 0.00 0.00 0.00 74 1003.3
20260509083553 10 26 3.2 16.1 0.00 0.00 0.00 73 1003.2
20260509083054 10 47 6.4 19.3 0.00 0.00 0.00 73 1003.2
20260509082553 10 39 11.3 22.5 0.00 0.00 0.00 72 1003.2
20260509082053 10 71 14.5 22.5 0.00 0.00 0.00 72 1003.2
20260509081557 10 46 14.5 20.9 0.00 0.00 0.00 70 1003.2
20260509081051 10 64 12.9 17.7 0.00 0.00 0.00 69 1003.2
20260509080549 11 48 6.4 14.5 0.00 0.00 0.00 67 1003.2
20260509080056 11 58 9.7 14.5 0.00 0.00 0.00 66 1003.0
20260509075548 10 63 9.7 16.1 0.00 0.00 0.00 65 1003.0
20260509075048 10 40 11.3 16.1 0.00 0.00 0.00 63 1003.0
20260509074547 10 54 9.7 14.5 0.00 0.00 0.00 58 1002.9
20260509074048 10 64 6.4 12.9 0.00 0.00 0.00 56 1003.2
20260509073546 10 59 4.8 14.5 0.00 0.00 0.00 55 1003.2
20260509073144 10 46 3.2 14.5 0.00 0.00 0.00 55 1003.0
20260509072543 10 354 1.6 8.0 0.00 0.00 0.00 54 1002.9
20260509072041 10 44 1.6 9.7 0.00 0.00 0.00 53 1003.0
20260509071546 10 26 1.6 12.9 0.00 0.00 0.00 53 1002.9
20260509071041 10 46 8.0 12.9 0.00 0.00 0.00 53 1002.8
20260509070544 10 358 3.2 12.9 0.00 0.00 0.00 53 1002.7
20260509070042 10 333 1.6 8.0 0.00 0.00 0.00 58 1002.5
20260509065538 10 291 1.6 4.8 0.00 0.00 0.00 57 1002.2
20260509065038 10 283 3.2 4.8 0.00 0.00 0.00 55 1002.3
20260509064551 10 287 0.0 4.8 0.00 0.00 0.00 56 1002.4
20260509064038 10 284 1.6 4.8 0.00 0.00 0.00 52 1002.5
20260509063536 10 283 1.6 4.8 0.00 0.00 0.00 49 1002.5
20260509063038 10 281 0.0 3.2 0.00 0.00 0.00 50 1002.5
20260509062539 10 294 0.0 1.6 0.00 0.00 0.00 51 1002.4
20260509062035 10 290 0.0 1.6 0.00 0.00 0.00 48 1002.4
20260509061543 10 285 0.0 1.6 0.00 0.00 0.00 48 1002.4
20260509061038 10 269 0.0 1.6 0.00 0.00 0.00 48 1002.4
20260509060534 10 269 0.0 1.6 0.00 0.00 0.00 48 1002.4
20260509060036 10 269 0.0 1.6 0.00 0.00 0.00 48 1002.4
20260509055536 9 277 0.0 3.2 0.00 0.00 0.00 47 1002.3
20260509055033 10 240 1.6 3.2 0.00 0.00 0.00 48 1002.3
20260509054537 10 273 0.0 3.2 0.00 0.00 0.00 49 1002.4
20260509054032 10 279 0.0 4.8 0.00 0.00 0.00 47 1002.4
20260509053531 10 263 0.0 4.8 0.00 0.00 0.00 46 1002.3
20260509053031 10 280 0.0 4.8 0.00 0.00 0.00 46 1002.3
20260509052530 10 277 1.6 6.4 0.00 0.00 0.00 46 1002.3
20260509052032 10 242 3.2 6.4 0.00 0.00 0.00 45 1002.3
20260509051528 10 259 0.0 3.2 0.00 0.00 0.00 45 1002.6
20260509051028 10 231 0.0 3.2 0.00 0.00 0.00 45 1002.6
20260509050529 10 232 0.0 3.2 0.00 0.00 0.00 44 1002.9
20260509050028 10 236 0.0 3.2 0.00 0.00 0.00 44 1002.8
20260509045524 10 253 0.0 1.6 0.00 0.00 0.00 44 1002.9
20260509045024 10 250 0.0 3.2 0.00 0.00 0.00 43 1003.0
20260509044524 10 266 0.0 3.2 0.00 0.00 0.00 43 1003.1
20260509044024 10 242 0.0 3.2 0.00 0.00 0.00 44 1003.0
20260509043523 10 243 1.6 3.2 0.00 0.00 0.00 44 1002.9
20260509043023 10 262 0.0 1.6 0.00 0.00 0.00 48 1003.2
20260509042523 10 277 0.0 1.6 0.00 0.00 0.00 50 1003.4
20260509042024 11 259 0.0 1.6 0.00 0.00 0.00 56 1003.3
20260509041523 11 274 0.0 1.6 0.00 0.00 0.00 57 1003.4
20260509041024 11 284 0.0 1.6 0.00 0.00 0.00 46 1003.4
20260509040525 12 284 0.0 1.6 0.00 0.00 0.00 41 1003.4
20260509040034 12 285 0.0 3.2 0.00 0.00 0.00 40 1003.4
20260509035522 12 293 0.0 1.6 0.00 0.00 0.00 39 1003.4
20260509035023 12 309 0.0 1.6 0.00 0.00 0.00 38 1003.5
20260509034522 12 311 0.0 1.6 0.00 0.00 0.00 37 1003.7
20260509034021 12 300 0.0 3.2 0.00 0.00 0.00 37 1003.8
20260509033521 12 321 0.0 3.2 0.00 0.00 0.00 37 1003.7
20260509033021 12 311 0.0 3.2 0.00 0.00 0.00 36 1003.8
20260509032521 13 333 0.0 4.8 0.00 0.00 0.00 36 1003.7
20260509032019 13 345 0.0 6.4 0.00 0.00 0.00 35 1003.7
20260509031527 13 360 1.6 6.4 0.00 0.00 0.00 35 1003.7
20260509031020 13 336 0.0 8.0 0.00 0.00 0.00 35 1003.7
20260509030520 13 351 0.0 8.0 0.00 0.00 0.00 34 1003.6
20260509030020 13 333 1.6 8.0 0.00 0.00 0.00 34 1003.6
20260509025519 13 354 1.6 6.4 0.00 0.00 0.00 34 1003.6
20260509025019 13 16 1.6 8.0 0.00 0.00 0.00 34 1003.5
20260509024519 13 10 0.0 9.7 0.00 0.00 0.00 34 1003.5
20260509024022 14 19 1.6 12.9 0.00 0.00 0.00 33 1003.4
20260509023519 14 4 4.8 12.9 0.00 0.00 0.00 33 1003.4
20260509023018 14 19 3.2 11.3 0.00 0.00 0.00 33 1003.4
20260509022518 15 352 4.8 11.3 0.00 0.00 0.00 33 1003.4
20260509022018 15 55 3.2 16.1 0.00 0.00 0.00 33 1003.4
20260509021520 15 1 6.4 17.7 0.00 0.00 0.00 33 1003.4
20260509021017 15 1 6.4 17.7 0.00 0.00 0.00 33 1003.4
20260509020516 15 345 6.4 17.7 0.00 0.00 0.00 33 1003.3
20260509020017 15 336 6.4 24.1 0.00 0.00 0.00 32 1003.3
20260509015520 15 340 9.7 24.1 0.00 0.00 0.00 32 1003.3
20260509015016 15 330 9.7 19.3 0.00 0.00 0.00 33 1003.2
20260509014533 16 8 9.7 17.7 0.00 0.00 0.00 33 1003.1
20260509014015 16 31 8.0 17.7 0.00 0.00 0.00 33 1002.9
20260509013517 16 101 6.4 19.3 0.00 0.00 0.00 32 1002.9
20260509013016 16 333 8.0 20.9 0.00 0.00 0.00 32 1002.8
20260509012515 16 322 8.0 22.5 0.00 0.00 0.00 32 1002.6
20260509012015 17 328 9.7 24.1 0.00 0.00 0.00 31 1002.5
20260509011515 17 334 11.3 24.1 0.00 0.00 0.00 31 1002.5
20260509011015 17 358 12.9 30.6 0.00 0.00 0.00 31 1002.4
20260509010514 17 321 9.7 30.6 0.00 0.00 0.00 30 1002.4
20260509010014 17 318 14.5 24.1 0.00 0.00 0.00 30 1002.3
20260509005516 18 345 11.3 25.7 0.00 0.00 0.00 30 1002.3
20260509005014 18 302 9.7 24.1 0.00 0.00 0.00 30 1002.2
20260509004515 18 312 9.7 27.4 0.00 0.00 0.00 29 1002.1
20260509004014 18 335 12.9 27.4 0.00 0.00 0.00 28 1002.1
20260509003513 18 316 8.0 22.5 0.00 0.00 0.00 28 1002.0
20260509003013 19 332 8.0 16.1 0.00 0.00 0.00 28 1001.9
20260509002513 19 349 3.2 19.3 0.00 0.00 0.00 28 1001.9
20260509002013 19 320 6.4 27.4 0.00 0.00 0.00 27 1001.9
20260509001512 19 335 14.5 27.4 0.00 0.00 0.00 26 1001.9
20260509001012 19 316 11.3 27.4 0.00 0.00 0.00 26 1001.9
20260509000511 19 276 9.7 33.8 0.00 0.00 0.00 25 1001.8
20260509000012 19 30 16.1 33.8 0.00 0.00 0.00 25 1001.8
20260508235515 20 297 8.0 29.0 0.00 0.00 0.00 25 1002.0
20260508235011 20 323 16.1 29.0 0.00 0.00 0.00 25 1001.8
20260508234510 20 303 12.9 30.6 0.00 0.00 0.00 25 1001.8
20260508234013 20 284 14.5 30.6 0.00 0.00 0.00 24 1001.8
20260508233514 20 299 9.7 27.4 0.00 0.00 0.00 24 1001.8
20260508233010 20 333 12.9 25.7 0.00 0.00 0.00 24 1001.9
20260508232508 20 26 11.3 32.2 0.00 0.00 0.00 25 1001.8
20260508232008 20 336 12.9 32.2 0.00 0.00 0.00 25 1001.8
20260508231508 19 312 14.5 29.0 0.00 0.00 0.00 25 1001.9
20260508231009 19 315 9.7 32.2 0.00 0.00 0.00 25 1001.9
20260508230507 20 273 11.3 32.2 0.00 0.00 0.00 24 1002.0
20260508230006 20 320 9.7 22.5 0.00 0.00 0.00 25 1001.8
20260508225506 20 299 8.0 27.4 0.00 0.00 0.00 25 1001.8
20260508225005 20 319 12.9 27.4 0.00 0.00 0.00 24 1001.8
20260508224505 21 328 11.3 25.7 0.00 0.00 0.00 25 1001.8
20260508224003 20 16 6.4 30.6 0.00 0.00 0.00 25 1001.7
20260508223504 20 291 6.4 38.6 0.00 0.00 0.00 26 1001.8
20260508223005 20 262 20.9 38.6 0.00 0.00 0.00 25 1001.8
20260508222501 20 255 14.5 32.2 0.00 0.00 0.00 26 1001.8
20260508222003 21 333 8.0 43.5 0.00 0.00 0.00 25 1001.9
20260508221600 20 273 20.9 43.5 0.00 0.00 0.00 25 1001.8
20260508221100 21 311 11.3 24.1 0.00 0.00 0.00 25 1001.8
20260508220600 21 20 9.7 20.9 0.00 0.00 0.00 24 1001.9
20260508220120 21 144 4.8 22.5 0.00 0.00 0.00 27 1001.9
20260508215557 20 316 11.3 25.7 0.00 0.00 0.00 26 1002.0
20260508215057 20 326 9.7 33.8 0.00 0.00 0.00 26 1002.0
20260508214558 20 336 12.9 33.8 0.00 0.00 0.00 26 1001.9
20260508214056 20 323 9.7 29.0 0.00 0.00 0.00 25 1002.0
20260508213554 20 332 12.9 29.0 0.00 0.00 0.00 25 1002.2
20260508213056 20 15 4.8 35.4 0.00 0.00 0.00 27 1002.2
20260508212554 20 330 12.9 35.4 0.00 0.00 0.00 27 1002.3
20260508212055 20 307 19.3 33.8 0.00 0.00 0.00 26 1002.2
20260508211553 20 277 17.7 33.8 0.00 0.00 0.00 26 1002.2
20260508211051 20 304 8.0 20.9 0.00 0.00 0.00 26 1002.5
20260508210551 20 337 8.0 27.4 0.00 0.00 0.00 26 1002.4
20260508210051 20 333 11.3 33.8 0.00 0.00 0.00 26 1002.5
20260508205550 19 307 19.3 33.8 0.00 0.00 0.00 28 1002.4
20260508205050 19 316 11.3 27.4 0.00 0.00 0.00 26 1002.7
20260508204600 20 266 16.1 25.7 0.00 0.00 0.00 25 1002.7
20260508204050 20 336 4.8 30.6 0.00 0.00 0.00 26 1002.8
20260508203547 20 328 16.1 30.6 0.00 0.00 0.00 29 1002.9
20260508203048 20 283 8.0 19.3 0.00 0.00 0.00 25 1002.9
20260508202545 20 279 8.0 19.3 0.00 0.00 0.00 26 1003.1
20260508202048 20 301 8.0 27.4 0.00 0.00 0.00 26 1003.3
20260508201546 20 217 11.3 27.4 0.00 0.00 0.00 26 1003.3
20260508201041 20 273 17.7 27.4 0.00 0.00 0.00 24 1003.3
20260508200541 19 56 6.4 17.7 0.00 0.00 0.00 26 1003.4
20260508200140 19 294 6.4 29.0 0.00 0.00 0.00 26 1003.6
20260508195539 19 293 16.1 29.0 0.00 0.00 0.00 25 1003.7
20260508195038 19 287 14.5 32.2 0.00 0.00 0.00 25 1003.7
20260508194539 19 274 22.5 32.2 0.00 0.00 0.00 26 1003.9
20260508194036 19 12 8.0 17.7 0.00 0.00 0.00 27 1004.0
20260508193538 18 250 4.8 22.5 0.00 0.00 0.00 27 1004.0
20260508193034 18 283 12.9 25.7 0.00 0.00 0.00 26 1004.1
20260508192533 18 23 9.7 25.7 0.00 0.00 0.00 27 1004.1
20260508192034 18 270 6.4 25.7 0.00 0.00 0.00 25 1004.2
20260508191533 18 278 8.0 29.0 0.00 0.00 0.00 25 1004.3
20260508191033 18 22 11.3 29.0 0.00 0.00 0.00 24 1004.4
20260508190534 18 300 6.4 22.5 0.00 0.00 0.00 25 1004.5
20260508190034 18 270 11.3 22.5 0.00 0.00 0.00 25 1004.4
20260508185532 18 290 4.8 22.5 0.00 0.00 0.00 25 1004.6
20260508185028 18 288 11.3 22.5 0.00 0.00 0.00 25 1004.7
20260508184539 18 270 12.9 25.7 0.00 0.00 0.00 26 1004.7
20260508184029 18 270 14.5 30.6 0.00 0.00 0.00 27 1004.8
20260508183526 18 290 20.9 30.6 0.00 0.00 0.00 25 1004.7
20260508183026 18 326 8.0 30.6 0.00 0.00 0.00 25 1004.9
20260508182528 18 279 14.5 24.1 0.00 0.00 0.00 27 1004.8
20260508182024 18 280 8.0 17.7 0.00 0.00 0.00 26 1005.0
20260508181532 17 290 6.4 14.5 0.00 0.00 0.00 27 1005.1
20260508181022 18 276 6.4 19.3 0.00 0.00 0.00 27 1005.2
20260508180522 18 295 11.3 24.1 0.00 0.00 0.00 27 1005.2
20260508180022 18 271 9.7 24.1 0.00 0.00 0.00 26 1005.2
20260508175522 18 328 6.4 20.9 0.00 0.00 0.00 28 1005.4
20260508175019 17 315 4.8 17.7 0.00 0.00 0.00 27 1005.4
20260508174530 18 287 9.7 17.7 0.00 0.00 0.00 25 1005.6
20260508174019 17 311 6.4 17.7 0.00 0.00 0.00 26 1005.6
20260508173517 17 278 6.4 20.9 0.00 0.00 0.00 27 1005.7
20260508173016 17 330 6.4 22.5 0.00 0.00 0.00 27 1005.8
20260508172514 17 274 12.9 20.9 0.00 0.00 0.00 26 1005.9
20260508172015 17 256 6.4 14.5 0.00 0.00 0.00 26 1006.0
20260508171512 17 349 3.2 17.7 0.00 0.00 0.00 26 1006.1
20260508171012 17 26 9.7 20.9 0.00 0.00 0.00 27 1006.3
20260508170510 17 26 8.0 22.5 0.00 0.00 0.00 27 1006.3
20260508170010 17 269 6.4 20.9 0.00 0.00 0.00 27 1006.3
20260508165508 17 281 6.4 17.7 0.00 0.00 0.00 27 1006.4
20260508165007 17 343 3.2 19.3 0.00 0.00 0.00 28 1006.4
20260508164507 16 328 8.0 19.3 0.00 0.00 0.00 28 1006.5
20260508164006 16 360 8.0 12.9 0.00 0.00 0.00 30 1006.6
20260508163504 16 337 3.2 11.3 0.00 0.00 0.00 30 1006.6
20260508163003 16 297 4.8 11.3 0.00 0.00 0.00 31 1006.7